Radiation Dose at Monitoring Post of Fukushima Daini Nuclear Power Station
Date,Time,MP-1(microSv/h),MP-2(microSv/h),MP-3(microSv/h),MP-4(microSv/h),MP-5(microSv/h),MP-6(microSv/h),MP-7(microSv/h),Wind Direction,Wind Velocity(m/s),Rain
2024/07/03,00:00,0.146,0.131,0.212,0.200,0.208,0.117,0.076,south-southeast,0.7,No
2024/07/03,00:10,0.148,0.131,0.212,0.197,0.206,0.118,0.076,southeast,0.7,No
2024/07/03,00:20,0.148,0.132,0.213,0.199,0.208,0.119,0.076,south-southeast,0.7,No
2024/07/03,00:30,0.147,0.131,0.212,0.198,0.208,0.117,0.076,south,0.8,No
2024/07/03,00:40,0.149,0.132,0.212,0.197,0.206,0.118,0.076,south,0.6,No
2024/07/03,00:50,0.146,0.132,0.212,0.199,0.209,0.118,0.076,-,CALM,No
2024/07/03,01:00,0.148,0.131,0.212,0.198,0.207,0.117,0.076,south-southeast,1.0,No
2024/07/03,01:10,0.148,0.131,0.214,0.200,0.207,0.117,0.076,south-southeast,1.6,No
2024/07/03,01:20,0.147,0.130,0.211,0.200,0.209,0.117,0.077,south,1.0,No
2024/07/03,01:30,0.148,0.131,0.214,0.198,0.207,0.117,0.077,south-southeast,0.8,No
2024/07/03,01:40,0.147,0.131,0.212,0.200,0.207,0.118,0.075,-,CALM,No
2024/07/03,01:50,0.148,0.131,0.213,0.198,0.207,0.117,0.076,-,CALM,No
2024/07/03,02:00,0.149,0.132,0.213,0.199,0.205,0.118,0.075,southeast,0.6,No
2024/07/03,02:10,0.146,0.131,0.212,0.199,0.209,0.117,0.077,east,1.3,No
2024/07/03,02:20,0.149,0.132,0.214,0.197,0.207,0.118,0.076,southeast,0.7,No
2024/07/03,02:30,0.146,0.131,0.212,0.199,0.207,0.117,0.075,east-southeast,0.7,No
2024/07/03,02:40,0.148,0.133,0.212,0.199,0.208,0.117,0.076,east-northeast,0.9,No
2024/07/03,02:50,0.148,0.132,0.211,0.199,0.206,0.118,0.076,-,CALM,No
2024/07/03,03:00,0.147,0.132,0.214,0.199,0.208,0.118,0.077,north-northeast,1.0,No
2024/07/03,03:10,0.149,0.133,0.213,0.199,0.206,0.117,0.076,north,1.1,No
2024/07/03,03:20,0.148,0.132,0.214,0.201,0.206,0.119,0.077,north-northwest,1.8,No
2024/07/03,03:30,0.149,0.133,0.213,0.197,0.208,0.118,0.077,north-northwest,2.0,No
2024/07/03,03:40,0.148,0.131,0.212,0.199,0.207,0.118,0.077,northwest,2.2,No
2024/07/03,03:50,0.147,0.134,0.214,0.198,0.207,0.117,0.077,north-northwest,1.6,No
2024/07/03,04:00,0.148,0.131,0.212,0.199,0.208,0.117,0.076,north-northwest,1.4,No
2024/07/03,04:10,0.148,0.132,0.214,0.199,0.207,0.117,0.077,northwest,2.3,No
2024/07/03,04:20,0.149,0.132,0.212,0.198,0.209,0.118,0.077,north-northwest,3.2,No
2024/07/03,04:30,0.148,0.131,0.214,0.200,0.207,0.119,0.076,north,2.9,No
2024/07/03,04:40,0.148,0.132,0.213,0.199,0.208,0.118,0.076,north,1.5,No
2024/07/03,04:50,0.148,0.131,0.213,0.199,0.208,0.117,0.076,north-northeast,1.2,No
2024/07/03,05:00,0.148,0.132,0.213,0.197,0.206,0.119,0.077,northeast,0.6,No
2024/07/03,05:10,0.148,0.131,0.212,0.198,0.209,0.118,0.077,north-northwest,0.7,No
2024/07/03,05:20,0.147,0.132,0.213,0.199,0.207,0.118,0.077,north-northwest,1.2,No
2024/07/03,05:30,0.147,0.131,0.212,0.198,0.207,0.118,0.076,northwest,1.6,No
2024/07/03,05:40,0.147,0.132,0.213,0.200,0.208,0.116,0.076,northwest,0.9,No
2024/07/03,05:50,0.148,0.131,0.211,0.198,0.205,0.117,0.076,north-northwest,0.8,No
2024/07/03,06:00,0.148,0.130,0.213,0.199,0.208,0.117,0.077,northwest,0.9,No
2024/07/03,06:10,0.147,0.131,0.213,0.199,0.207,0.117,0.075,northwest,0.9,No
2024/07/03,06:20,0.148,0.132,0.212,0.198,0.206,0.118,0.076,northwest,0.8,No
2024/07/03,06:30,0.148,0.129,0.214,0.199,0.207,0.118,0.077,north-northwest,0.6,No
2024/07/03,06:40,0.148,0.133,0.210,0.198,0.208,0.117,0.076,-,CALM,No
2024/07/03,06:50,0.146,0.131,0.213,0.196,0.206,0.118,0.075,-,CALM,No
2024/07/03,07:00,0.145,0.131,0.212,0.198,0.205,0.117,0.076,-,CALM,No
2024/07/03,07:10,0.146,0.129,0.211,0.199,0.204,0.116,0.076,east-northeast,0.8,No
2024/07/03,07:20,0.148,0.130,0.210,0.198,0.208,0.117,0.076,east,1.4,No
2024/07/03,07:30,0.147,0.132,0.209,0.196,0.207,0.118,0.077,southeast,1.0,No
2024/07/03,07:40,0.147,0.131,0.211,0.195,0.205,0.117,0.075,southeast,1.2,No
2024/07/03,07:50,0.145,0.130,0.213,0.198,0.205,0.118,0.075,southeast,1.7,No
2024/07/03,08:00,0.145,0.131,0.212,0.200,0.204,0.117,0.076,south-southeast,2.1,No
2024/07/03,08:10,0.145,0.130,0.211,0.198,0.204,0.116,0.075,south-southeast,2.4,No
2024/07/03,08:20,0.145,0.128,0.211,0.198,0.206,0.116,0.075,south-southeast,3.1,No
2024/07/03,08:30,0.145,0.130,0.211,0.197,0.208,0.117,0.075,south-southeast,3.3,No
2024/07/03,08:40,0.146,0.130,0.211,0.197,0.208,0.116,0.075,south-southeast,2.7,No
2024/07/03,08:50,0.145,0.129,0.212,0.197,0.207,0.116,0.076,south-southeast,3.2,No
2024/07/03,09:00,0.145,0.130,0.211,0.197,0.206,0.117,0.076,south-southeast,3.8,No
2024/07/03,09:10,0.146,0.129,0.210,0.197,0.206,0.118,0.076,south-southeast,4.1,No
2024/07/03,09:20,0.146,0.130,0.210,0.197,0.205,0.117,0.075,south,3.7,Yes
2024/07/03,09:30,0.146,0.130,0.211,0.197,0.204,0.117,0.075,south-southeast,4.1,Yes
2024/07/03,09:40,0.146,0.132,0.211,0.195,0.205,0.116,0.075,south-southeast,5.6,Yes
2024/07/03,09:50,0.147,0.131,0.212,0.199,0.208,0.117,0.076,south-southeast,5.4,Yes
2024/07/03,10:00,0.148,0.131,0.212,0.200,0.207,0.117,0.075,south,5.0,No
2024/07/03,10:10,0.148,0.130,0.212,0.198,0.207,0.117,0.075,south-southeast,4.1,No
2024/07/03,10:20,0.147,0.130,0.211,0.198,0.206,0.116,0.075,south,4.3,No
2024/07/03,10:30,0.146,0.130,0.210,0.197,0.205,0.116,0.075,south-southeast,5.0,No
2024/07/03,10:40,0.146,0.130,0.210,0.197,0.207,0.116,0.074,south-southeast,5.2,No
2024/07/03,10:50,0.147,0.130,0.209,0.198,0.205,0.116,0.076,south-southeast,5.6,No
2024/07/03,11:00,0.146,0.130,0.211,0.197,0.204,0.118,0.075,south,6.4,No
2024/07/03,11:10,0.146,0.131,0.212,0.198,0.206,0.117,0.076,south,6.1,No
2024/07/03,11:20,0.146,0.129,0.212,0.199,0.205,0.116,0.075,south,6.8,No
2024/07/03,11:30,0.147,0.130,0.212,0.197,0.206,0.117,0.075,south-southeast,5.8,No
2024/07/03,11:40,0.146,0.130,0.213,0.197,0.205,0.117,0.075,south,6.1,No
2024/07/03,11:50,0.146,0.129,0.211,0.197,0.207,0.118,0.077,south,6.0,Yes
2024/07/03,12:00,0.146,0.132,0.210,0.197,0.206,0.117,0.075,south,5.0,Yes
2024/07/03,12:10,0.147,0.132,0.211,0.199,0.207,0.117,0.076,south,4.4,Yes
2024/07/03,12:20,0.149,0.131,0.215,0.201,0.209,0.118,0.076,south,3.0,Yes
2024/07/03,12:30,0.148,0.131,0.214,0.199,0.208,0.118,0.076,south-southeast,3.7,Yes
2024/07/03,12:40,0.148,0.133,0.213,0.197,0.206,0.118,0.076,south-southwest,2.4,Yes
2024/07/03,12:50,0.150,0.132,0.210,0.197,0.204,0.118,0.077,south-southwest,2.0,Yes
2024/07/03,13:00,0.149,0.131,0.212,0.198,0.209,0.118,0.078,south-southeast,4.7,Yes
2024/07/03,13:10,0.147,0.132,0.211,0.196,0.206,0.119,0.078,south-southeast,5.3,Yes
2024/07/03,13:20,0.148,0.131,0.210,0.197,0.206,0.118,0.078,south-southeast,5.3,No
2024/07/03,13:30,0.149,0.130,0.211,0.198,0.207,0.118,0.077,south-southeast,5.0,No
2024/07/03,13:40,0.146,0.131,0.210,0.196,0.205,0.118,0.076,south-southeast,5.4,No
2024/07/03,13:50,0.146,0.130,0.209,0.195,0.203,0.116,0.076,south,4.2,No
2024/07/03,14:00,0.146,0.129,0.209,0.196,0.204,0.117,0.076,south-southeast,4.8,No
2024/07/03,14:10,0.146,0.130,0.210,0.197,0.206,0.117,0.075,south-southeast,4.2,No
2024/07/03,14:20,0.146,0.130,0.209,0.195,0.204,0.116,0.074,south-southeast,4.0,No
2024/07/03,14:30,0.144,0.129,0.206,0.194,0.203,0.115,0.075,south,3.7,No
2024/07/03,14:40,0.146,0.127,0.207,0.196,0.203,0.116,0.075,south-southwest,4.1,Yes
2024/07/03,14:50,0.145,0.130,0.208,0.195,0.206,0.116,0.075,south,3.4,Yes
2024/07/03,15:00,0.145,0.129,0.207,0.195,0.205,0.115,0.075,south,3.4,Yes
2024/07/03,15:10,0.143,0.128,0.207,0.195,0.202,0.116,0.075,south,4.0,Yes
2024/07/03,15:20,0.146,0.129,0.207,0.196,0.201,0.116,0.075,south-southwest,4.1,No
2024/07/03,15:30,0.145,0.130,0.209,0.196,0.205,0.115,0.074,south-southwest,4.3,No
2024/07/03,15:40,0.145,0.130,0.208,0.196,0.205,0.115,0.074,south-southwest,3.1,No
2024/07/03,15:50,0.143,0.128,0.207,0.194,0.203,0.117,0.074,south-southwest,1.7,No
2024/07/03,16:00,0.145,0.128,0.208,0.195,0.202,0.116,0.075,northwest,2.4,No
2024/07/03,16:10,0.145,0.130,0.210,0.197,0.203,0.115,0.074,north-northwest,2.3,No
2024/07/03,16:20,0.144,0.129,0.208,0.195,0.204,0.115,0.075,north-northwest,1.2,No
2024/07/03,16:30,0.144,0.128,0.205,0.194,0.204,0.116,0.075,-,CALM,No
2024/07/03,16:40,0.145,0.129,0.205,0.192,0.203,0.117,0.075,-,CALM,No
2024/07/03,16:50,0.146,0.129,0.208,0.195,0.202,0.115,0.074,south-southwest,1.8,No
2024/07/03,17:00,0.145,0.129,0.210,0.197,0.202,0.115,0.074,south-southwest,2.4,No
2024/07/03,17:10,0.144,0.129,0.206,0.195,0.205,0.115,0.074,south-southwest,2.3,No
2024/07/03,17:20,0.146,0.129,0.207,0.195,0.206,0.116,0.075,south-southwest,2.2,No
2024/07/03,17:30,0.146,0.130,0.207,0.194,0.204,0.115,0.075,south-southwest,2.2,No
2024/07/03,17:40,0.145,0.129,0.210,0.197,0.204,0.116,0.075,south,2.3,No
2024/07/03,17:50,0.145,0.128,0.208,0.198,0.203,0.117,0.075,south,2.9,No
2024/07/03,18:00,0.146,0.128,0.206,0.195,0.206,0.116,0.075,south,3.0,No
2024/07/03,18:10,0.146,0.130,0.208,0.194,0.205,0.116,0.074,south-southwest,4.2,No
2024/07/03,18:20,0.145,0.129,0.209,0.197,0.203,0.116,0.075,south-southwest,4.8,No
2024/07/03,18:30,0.145,0.129,0.208,0.196,0.203,0.116,0.075,south,4.5,No
2024/07/03,18:40,0.147,0.130,0.208,0.194,0.206,0.115,0.075,south,4.6,No
2024/07/03,18:50,0.146,0.129,0.210,0.197,0.205,0.116,0.075,south-southwest,4.9,No
2024/07/03,19:00,0.144,0.128,0.207,0.197,0.203,0.116,0.075,south-southwest,4.9,No
2024/07/03,19:10,0.145,0.130,0.207,0.194,0.206,0.116,0.075,south,5.4,No
2024/07/03,19:20,0.144,0.129,0.209,0.195,0.205,0.116,0.074,south,5.1,No
2024/07/03,19:30,0.144,0.130,0.208,0.197,0.204,0.116,0.074,south,5.5,No
2024/07/03,19:40,0.146,0.130,0.207,0.194,0.204,0.116,0.074,south,5.2,No
2024/07/03,19:50,0.145,0.130,0.209,0.194,0.206,0.114,0.075,south-southwest,5.7,No
2024/07/03,20:00,0.144,0.129,0.209,0.196,0.205,0.115,0.076,south-southwest,5.4,No
2024/07/03,20:10,0.145,0.129,0.207,0.197,0.203,0.116,0.075,south-southwest,5.5,No
2024/07/03,20:20,0.146,0.130,0.209,0.194,0.204,0.115,0.075,south-southwest,6.3,No
2024/07/03,20:30,0.145,0.129,0.208,0.194,0.206,0.114,0.075,south-southwest,8.1,No
2024/07/03,20:40,0.145,0.129,0.207,0.196,0.204,0.115,0.075,south-southwest,8.4,No
2024/07/03,20:50,0.146,0.129,0.208,0.195,0.202,0.117,0.074,south-southwest,7.5,No
2024/07/03,21:00,0.144,0.128,0.210,0.194,0.206,0.116,0.075,south-southwest,7.3,No
2024/07/03,21:10,0.144,0.129,0.208,0.197,0.205,0.115,0.075,south-southwest,7.2,No
2024/07/03,21:20,0.146,0.130,0.207,0.197,0.204,0.117,0.074,south-southwest,6.6,No
2024/07/03,21:30,0.146,0.128,0.209,0.194,0.204,0.116,0.074,south-southwest,6.2,No
2024/07/03,21:40,0.145,0.128,0.207,0.194,0.206,0.116,0.076,south-southwest,7.7,No
2024/07/03,21:50,0.145,0.129,0.206,0.197,0.205,0.116,0.074,south-southwest,6.7,No
2024/07/03,22:00,0.146,0.129,0.210,0.196,0.203,0.116,0.076,south-southwest,5.7,No
2024/07/03,22:10,0.145,0.129,0.208,0.194,0.205,0.117,0.075,south-southwest,5.8,No
2024/07/03,22:20,0.145,0.130,0.206,0.195,0.204,0.115,0.075,south-southwest,6.0,No
2024/07/03,22:30,0.147,0.129,0.209,0.196,0.203,0.116,0.074,south-southwest,4.7,No
2024/07/03,22:40,0.145,0.129,0.210,0.196,0.202,0.115,0.074,south-southwest,5.5,No
2024/07/03,22:50,0.143,0.130,0.208,0.194,0.206,0.116,0.075,south,5.4,No
2024/07/03,23:00,0.146,0.130,0.207,0.196,0.204,0.115,0.075,south-southwest,5.3,No
2024/07/03,23:10,0.146,0.129,0.210,0.197,0.204,0.115,0.074,south,5.1,No
2024/07/03,23:20,0.145,0.129,0.209,0.195,0.202,0.116,0.076,south-southwest,4.7,No
2024/07/03,23:30,0.145,0.129,0.207,0.193,0.205,0.117,0.075,south-southwest,3.5,No
2024/07/03,23:40,0.147,0.129,0.209,0.196,0.204,0.115,0.074,south-southwest,3.7,No
2024/07/03,23:50,0.145,0.129,0.209,0.197,0.202,0.115,0.074,south-southwest,3.1,No
